Weather in Anishino

Russia / Tula Oblast     54°18′59″N   37°57′14″E
temp.,
°C
wind,
m/s
gust,
m/s
humid.,
%
clouds,
%
prec.,
mm/h
press.,
hPa
HPBL,
m
21 april, wed
wed2100:00+1ene51097100 0.3 1009354
03:000nne4899100 2.8 1006240
06:00+1nw22100100 1.3 1004104
09:00+2wsw3599100 1.4 1006384
12:00+3wsw5791100 0.1 1008705
15:00+4wsw5784100 0.1 1009925
18:00+4sw3689100 0.0 1011354
21:00+4s3790100 0.1 1013188
22 april, thu
thu2200:00+4s3791100 0.0 1014213
03:00+3sw3699100 0.6 1015502
06:00+3sw499454 0.1 1016415
09:00+5ssw588797 0.1 1017663
12:00+9ssw697351 0.0 10171005
15:00+11s5871100 0.1 1017921
18:00+11ssw6107271 0.4 1016525
21:00+8s4118917 0.7 1017239
23 april, fri
fri2300:00+7s5128925 0.0 1017289
03:00+7s5128995 0.3 1017287
06:00+7s5138521 0.1 1017325
09:00+12s6126676 0.1 1017652
12:00+16s8114581 0.0 10162513
15:00+14sse71055100 0.0 10161319
18:00+14sse611585 0.0 1014684
21:00+10se6147511 0.0 1013344
24 april, sat
sat2400:00+9sse6128290 0.3 1011311
03:00+8sse61385100 0.3 1009462
06:00+8s61186100 0.1 1008791
09:00+4w4696100 1.3 1008453
12:00+3w51097100 4.8 1009584
15:00+7w6867100 5.3 10091339
18:00+7wsw6105924 0.6 1009730
21:00+4wsw598168 0.9 1010324
25 april, sun
sun2500:00+2w598968 0.2 1010387
03:00+1wsw49915 0.3 1010299
06:000wsw5109450 0.0 1011424
09:00+4wsw697589 0.0 10111033
12:00+6w5757100 0.2 10111641
15:00+8wsw6852100 1.2 10111725
18:00+6wsw576399 0.8 10111030
21:00+3sw38777 1.2 1012187